Regional Weather Roundup
Issued by NWS

Home | Current Version | Previous Version | Graphics & Text | Print | Product List | Glossary On
Versions: 1 2 3 4 5 6 7 8 9 10 11 12 13 14 15 16 17 18 19 20 21 22 23 24 25 26 27 28 29 30 31 32 33 34 35 36 37 38 39 40 41 42 43 44 45 46 47 48 49 50
000
ASUS43 KLSX 220207
RWRMO

WEATHER SUMMARY FOR MISSOURI
NATIONAL WEATHER SERVICE SPRINGFIELD MO
900 PM CDT MON AUG 21 2017

NOTE: "FAIR" INDICATES FEW OR NO CLOUDS BELOW 12,000 FEET WITH NO
       SIGNIFICANT WEATHER AND/OR OBSTRUCTIONS TO VISIBILITY.
       CURRENT SKY AND/OR WEATHER CONDITIONS ARE NOT AVAILABLE FOR
       CHILLICOTHE AND FARMINGTON.

MOZ001>031-035>038-043-044-053-054-220300-
...NORTHERN AND WESTERN MISSOURI...

CITY           SKY/WX    TMP DP  RH WIND       PRES   REMARKS
KANSAS CTY INT TSTM      69  68  96 NE24G36   29.95R VSB 1
KANSAS C DTWN  CLOUDY    78  74  87 N8        29.92R THUNDER
LEE`S SUMMIT   CLEAR     79  76  90 SE9       29.94F
ST JOSEPH      TSTM      71  70  96 S13       29.93F
CHILLICOTHE      N/A     71  70  96 S5        29.94F
KIRKSVILLE     MOCLDY    73  32  22 S7        29.94F

$$
MOZ066>068-077>081-088>096-101>105-220300-
...SOUTHWEST MISSOURI...

CITY           SKY/WX    TMP DP  RH WIND       PRES   REMARKS
SPRINGFIELD    CLEAR     81  74  79 S8        30.03F
JOPLIN         CLEAR     84  76  76 S10       30.00F HX  93
BRANSON        PTCLDY    81  72  74 S5        30.08S

$$
MOZ032>034-039>042-045>050-055>058-069>072-220300-
...CENTRAL MISSOURI...

CITY           SKY/WX    TMP DP  RH WIND       PRES   REMARKS
COLUMBIA       CLOUDY    74  71  91 SW3       29.98F
JEFFERSON CITY CLOUDY    81  75  82 SW5       29.97F
ROLLA          PTCLDY    74  73  97 S5        30.04F
SEDALIA        CLOUDY    75  72  90 SE10      29.97F
WHITEMAN AFB   MOCLDY    77  77 100 SE9       29.94F
WARRENSBURG    CLEAR     77  72  83 E6        29.93F
OSAGE BEACH    CLEAR     80  75  84 S5        30.01F

$$
MOZ051-052-059>065-220300-
...EAST CENTRAL MISSOURI...

CITY           SKY/WX    TMP DP  RH WIND       PRES   REMARKS
ST LOUIS INTL  MOCLDY    84  72  67 SE8       30.01S
SPIRIT OF STL  CLOUDY    80  77  90 CALM      30.00R
ST CHARLES     CLOUDY    79  75  87 E3        30.00S

$$
MOZ072>076-082>087-097>100-106>115-220300-
...SOUTH CENTRAL AND SOUTHEAST MISSOURI...

CITY           SKY/WX    TMP DP  RH WIND       PRES   REMARKS
CAPE GIRARDEAU CLEAR     78  71  79 SE6       30.05S
FARMINGTON     CLEAR     80  75  84 S5        30.07R
POPLAR BLUFF   CLEAR     80  77  90 S3        30.06R
WEST PLAINS    CLEAR     80  72  76 S5        30.09S

$$


USA.gov is the U.S. government's official web portal to all federal, state and local government web resources and services.